N2GCT Weather Reports


time (UTC)temp
C
wind
direction
speed
KPH
gust
KPH
rain 1hr
cm
rain 24hr
cm
rain mn
cm
humidity
%
barometer
mb
20260504044543 6 238 0.0 3.2 0.00 0.00 0.00 76 1010.4
20260504044524 6 236 1.6 3.2 0.00 0.00 0.00 76 1010.7
20260504043049 6 0 0.0 4.8 0.00 0.00 0.00 73 1010.8
20260504043030 6 225 0.0 4.8 0.00 0.00 0.00 73 1011.1
20260504041541 6 236 0.0 3.2 0.00 0.00 0.00 75 1010.8
20260504041527 6 235 0.0 3.2 0.00 0.00 0.00 75 1011.2
20260504040041 6 235 0.0 3.2 0.00 0.00 0.00 75 1010.8
20260504040006 6 196 0.0 3.2 0.00 0.00 0.00 75 1011.1
20260504034545 5 196 0.0 4.8 0.00 0.00 0.00 74 1010.8
20260504034508 5 232 0.0 4.8 0.00 0.00 0.00 74 1011.1
20260504033044 5 0 0.0 3.2 0.00 0.00 0.00 74 1010.8
20260504033006 5 271 0.0 3.2 0.00 0.00 0.00 74 1011.2
20260504031544 5 271 0.0 3.2 0.00 0.00 0.00 74 1010.7
20260504031506 5 271 0.0 3.2 0.00 0.00 0.00 74 1011.0
20260504030042 5 260 1.6 3.2 0.00 0.00 0.00 75 1010.6
20260504030008 5 259 1.6 3.2 0.00 0.00 0.00 75 1010.9
20260504024538 4 217 0.0 3.2 0.00 0.00 0.00 77 1010.7
20260504024507 4 217 0.0 3.2 0.00 0.00 0.00 77 1010.9
20260504023038 4 217 0.0 1.6 0.00 0.00 0.00 81 1010.6
20260504023007 4 217 0.0 1.6 0.00 0.00 0.00 81 1010.8
20260504021547 3 0 0.0 0.0 0.00 0.00 0.00 79 1010.6
20260504021507 3 217 0.0 0.0 0.00 0.00 0.00 79 1010.8
20260504020046 3 0 0.0 0.0 0.00 0.00 0.00 77 1010.5
20260504020003 3 217 0.0 0.0 0.00 0.00 0.00 77 1010.9
20260504014545 3 0 0.0 0.0 0.00 0.00 0.00 75 1010.5
20260504014508 3 217 0.0 0.0 0.00 0.00 0.00 75 1010.9
20260504013051 5 0 0.0 0.0 0.00 0.00 0.00 73 1010.4
20260504013012 5 217 0.0 0.0 0.00 0.00 0.00 73 1010.9
20260504011545 5 217 0.0 1.6 0.00 0.00 0.00 68 1010.3
20260504011508 5 217 0.0 1.6 0.00 0.00 0.00 68 1010.9
20260504010051 6 0 0.0 0.0 0.00 0.00 0.00 63 1010.1
20260504010006 6 217 0.0 0.0 0.00 0.00 0.00 63 1010.5
20260504004545 7 0 0.0 3.2 0.00 0.00 0.00 62 1009.9
20260504004506 7 217 0.0 3.2 0.00 0.00 0.00 62 1010.4
20260504003042 8 217 0.0 1.6 0.00 0.00 0.00 56 1009.8
20260504003008 8 217 0.0 1.6 0.00 0.00 0.00 56 1010.3
20260504001540 10 170 0.0 3.2 0.00 0.00 0.00 50 1009.8
20260504001508 10 154 0.0 3.2 0.00 0.00 0.00 50 1010.3
20260504000050 10 236 1.6 4.8 0.00 0.00 0.00 48 1009.7
20260504000013 10 236 1.6 4.8 0.00 0.00 0.00 48 1010.2
20260503234543 11 40 0.0 6.4 0.00 0.00 0.00 46 1009.7
20260503234526 10 34 1.6 6.4 0.00 0.00 0.00 46 1010.1
20260503233046 11 253 1.6 17.7 0.00 0.00 0.00 45 1009.5
20260503233027 11 258 1.6 17.7 0.00 0.00 0.00 45 1010.0
20260503231544 11 232 3.2 9.7 0.00 0.00 0.00 44 1009.3
20260503231526 11 252 4.8 9.7 0.00 0.00 0.00 44 1009.8
20260503230044 11 360 1.6 6.4 0.00 0.00 0.00 41 1009.1
20260503230024 11 219 1.6 6.4 0.00 0.00 0.00 41 1009.6
20260503224545 11 308 6.4 14.5 0.00 0.00 0.00 39 1009.0
20260503224531 11 304 6.4 14.5 0.00 0.00 0.00 39 1009.5
20260503223046 11 5 1.6 14.5 0.00 0.00 0.00 37 1008.9
20260503223028 11 321 3.2 14.5 0.00 0.00 0.00 37 1009.5
20260503221543 11 273 4.8 19.3 0.00 0.00 0.00 37 1008.8
20260503221527 11 263 3.2 19.3 0.00 0.00 0.00 37 1009.4
20260503220043 12 315 8.0 17.7 0.00 0.00 0.00 35 1008.8
20260503220027 12 9 9.7 17.7 0.00 0.00 0.00 35 1009.4
20260503214543 12 254 3.2 16.1 0.00 0.00 0.00 34 1008.7
20260503214531 12 348 4.8 16.1 0.00 0.00 0.00 34 1009.1
20260503213046 12 348 3.2 19.3 0.00 0.00 0.00 33 1008.8
20260503213028 12 25 4.8 19.3 0.00 0.00 0.00 33 1009.3
20260503211549 12 347 8.0 24.1 0.00 0.00 0.00 31 1008.8
20260503211527 12 34 9.7 24.1 0.00 0.00 0.00 31 1009.4
20260503210043 12 360 6.4 19.3 0.00 0.00 0.00 32 1008.6
20260503210040 12 345 6.4 19.3 0.00 0.00 0.00 32 1009.2
20260503204542 12 57 4.8 22.5 0.00 0.00 0.00 31 1008.5
20260503204527 12 17 6.4 22.5 0.00 0.00 0.00 31 1009.1
20260503203055 12 228 12.9 27.4 0.00 0.00 0.00 30 1008.9
20260503203028 12 346 12.9 27.4 0.00 0.00 0.00 30 1009.3
20260503201547 12 252 3.2 16.1 0.00 0.00 0.00 31 1008.8
20260503201533 12 323 4.8 16.1 0.00 0.00 0.00 31 1009.4
20260503200048 12 71 8.0 20.9 0.00 0.00 0.00 32 1009.3
20260503200026 12 300 8.0 17.7 0.00 0.00 0.00 32 1009.8
20260503194542 12 19 8.0 22.5 0.00 0.00 0.00 34 1009.6
20260503194528 12 62 6.4 22.5 0.00 0.00 0.00 34 1010.0
20260503193045 11 277 8.0 20.9 0.00 0.00 0.00 35 1009.6
20260503193025 11 11 6.4 20.9 0.00 0.00 0.00 35 1010.0
20260503191550 12 9 11.3 32.2 0.00 0.00 0.00 34 1009.9
20260503191530 12 222 11.3 32.2 0.00 0.00 0.00 34 1010.3
20260503190043 11 348 6.4 19.3 0.00 0.00 0.00 36 1009.9
20260503190009 11 299 6.4 19.3 0.00 0.00 0.00 36 1010.3
20260503184558 11 217 4.8 17.7 0.00 0.00 0.00 41 1009.9
20260503184508 11 264 4.8 17.7 0.00 0.00 0.00 41 1010.5
20260503183044 10 242 4.8 17.7 0.00 0.00 0.00 43 1010.2
20260503183008 10 277 4.8 17.7 0.00 0.00 0.00 43 1010.8
20260503181543 10 196 4.8 19.3 0.00 0.00 0.00 43 1010.3
20260503181510 10 180 3.2 19.3 0.00 0.00 0.00 43 1010.8
20260503180049 10 306 9.7 24.1 0.00 0.00 0.00 39 1010.6
20260503180008 10 360 6.4 24.1 0.00 0.00 0.00 39 1010.9
20260503174544 9 243 1.6 19.3 0.00 0.00 0.00 43 1010.6
20260503174509 9 252 1.6 19.3 0.00 0.00 0.00 43 1011.1
20260503173051 9 23 6.4 17.7 0.00 0.00 0.00 44 1010.9
20260503173007 9 300 8.0 17.7 0.00 0.00 0.00 44 1011.4
20260503171542 8 259 6.4 19.3 0.00 0.00 0.00 43 1011.0
20260503171508 8 34 6.4 19.3 0.00 0.00 0.00 43 1011.5
20260503081544 1 0 0.0 0.0 0.00 0.00 0.00 86 1011.3
20260503081507 1 238 0.0 0.0 0.00 0.00 0.00 86 1011.9
20260503071549 0 150 0.0 3.2 0.00 0.00 0.00 89 1011.6
20260503071515 0 150 1.6 3.2 0.00 0.00 0.00 89 1011.9
20260503060109 0 0 0.0 0.0 0.00 0.00 0.00 90 1012.2
20260503054542 0 0 0.0 3.2 0.00 0.00 0.00 90 1012.2
20260503054516 0 101 0.0 3.2 0.00 0.00 0.00 90 1012.7